DLH4EM EDDV-ENSB

Flight info

Callsign DLH4EM
Flight time 3h 38m
Altitude 36000
Route CEL9F CEL Q282 DIRBO Z990 IRKIS DCT BAGOS DCT MAKUR DCT XENTA DCT LULIL DCT SOMUB/N0461F350 DCT NIMKU/N0462F360 DCT XODBA DCT OMEXA DCT 75N014E DCT SUSES DCT ADV
Aircraft A320/M-SDE3FGHIRWY/LB1

Departure

Time 2026-05-05 09:15
Airport Hannover Airport (EDDV)

Arrival

Time 2026-05-05 12:54
Airport Svalbard Airport, Longyear (ENSB)
Time Latitude Longitude Altitude Speed Heading
2026-05-05 08:40 52.45843 9.69397 203 ft 0 kts 30°
2026-05-05 09:02 52.45843 9.69396 191 ft 1 kts 30°
2026-05-05 09:02 52.45830 9.69385 191 ft 3 kts 26°
2026-05-05 09:02 52.45812 9.69371 206 ft 3 kts 19°
2026-05-05 09:03 52.45793 9.69361 198 ft 3 kts
2026-05-05 09:03 52.45773 9.69360 200 ft 3 kts 343°
2026-05-05 09:03 52.45760 9.69371 205 ft 2 kts 283°
2026-05-05 09:03 52.45758 9.69377 204 ft 0 kts 271°
2026-05-05 09:07 52.45759 9.69361 201 ft 2 kts 272°
2026-05-05 09:07 52.45759 9.69353 198 ft 2 kts 272°
2026-05-05 09:07 52.45761 9.69246 191 ft 10 kts 272°
2026-05-05 09:07 52.45723 9.69157 199 ft 15 kts 201°
2026-05-05 09:08 52.45626 9.69184 193 ft 13 kts 122°
2026-05-05 09:08 52.45617 9.69306 191 ft 11 kts 93°
2026-05-05 09:08 52.45612 9.69464 191 ft 13 kts 92°
2026-05-05 09:08 52.45608 9.69626 194 ft 19 kts 93°
2026-05-05 09:09 52.45601 9.69846 202 ft 18 kts 92°
2026-05-05 09:09 52.45598 9.70022 191 ft 13 kts 92°
2026-05-05 09:09 52.45594 9.70141 191 ft 8 kts 94°
2026-05-05 09:09 52.45589 9.70295 191 ft 21 kts 92°
2026-05-05 09:10 52.45582 9.70570 191 ft 24 kts 92°
2026-05-05 09:10 52.45575 9.70839 191 ft 26 kts 92°
2026-05-05 09:10 52.45537 9.71077 202 ft 18 kts 143°
2026-05-05 09:10 52.45480 9.71101 200 ft 0 kts 180°
2026-05-05 09:12 52.45495 9.71101 200 ft 0 kts 180°
2026-05-05 09:13 52.45472 9.71101 196 ft 10 kts 179°
2026-05-05 09:13 52.45414 9.71091 196 ft 5 kts 210°
2026-05-05 09:13 52.45405 9.71059 199 ft 4 kts 259°
2026-05-05 09:13 52.45405 9.71044 192 ft 0 kts 272°
2026-05-05 09:14 52.45405 9.71039 192 ft 4 kts 272°
2026-05-05 09:14 52.45416 9.70719 199 ft 62 kts 274°
2026-05-05 09:15 52.45444 9.69654 199 ft 122 kts 272°
2026-05-05 09:15 52.45490 9.68020 334 ft 154 kts 275°
2026-05-05 09:15 52.45568 9.66250 1041 ft 158 kts 277°
2026-05-05 09:15 52.45667 9.64417 1668 ft 170 kts 277°
2026-05-05 09:16 52.45897 9.62376 1952 ft 195 kts 296°
2026-05-05 09:16 52.46853 9.60674 2270 ft 214 kts 323°
2026-05-05 09:16 52.48042 9.59175 2901 ft 219 kts 320°
2026-05-05 09:16 52.49239 9.57538 3505 ft 226 kts 317°
2026-05-05 09:17 52.50384 9.55833 4421 ft 220 kts 319°
2026-05-05 09:17 52.51838 9.54888 4955 ft 235 kts 359°
2026-05-05 09:17 52.53469 9.55090 5684 ft 236 kts
2026-05-05 09:17 52.55114 9.55216 6402 ft 237 kts 359°
2026-05-05 09:18 52.56758 9.55514 7031 ft 242 kts 19°
2026-05-05 09:18 52.58143 9.57074 7654 ft 247 kts 51°
2026-05-05 09:18 52.58837 9.59723 8026 ft 266 kts 85°
2026-05-05 09:18 52.58894 9.62895 8448 ft 287 kts 91°
2026-05-05 09:19 52.58894 9.66226 9196 ft 295 kts 91°
2026-05-05 09:19 52.58888 9.69637 9892 ft 301 kts 91°
2026-05-05 09:19 52.58886 9.73163 10320 ft 319 kts 91°
2026-05-05 09:19 52.58888 9.76948 10502 ft 342 kts 91°
2026-05-05 09:20 52.58896 9.80975 10760 ft 360 kts 91°
2026-05-05 09:20 52.58910 9.85135 11322 ft 367 kts 91°
2026-05-05 09:20 52.58925 9.89351 11949 ft 371 kts 91°
2026-05-05 09:20 52.58988 9.93629 12563 ft 376 kts 84°
2026-05-05 09:21 52.59672 9.97800 13167 ft 383 kts 65°
2026-05-05 09:21 52.61168 10.01440 13765 ft 388 kts 45°
2026-05-05 09:21 52.62533 10.03427 14123 ft 390 kts 38°
2026-05-05 09:21 52.64645 10.06255 14724 ft 393 kts 38°
2026-05-05 09:22 52.66777 10.09104 15379 ft 396 kts 37°
2026-05-05 09:22 52.68921 10.11975 15980 ft 399 kts 38°
2026-05-05 09:22 52.71077 10.14873 16574 ft 401 kts 38°
2026-05-05 09:22 52.73241 10.17794 17132 ft 403 kts 38°
2026-05-05 09:23 52.75417 10.20744 17692 ft 406 kts 38°
2026-05-05 09:23 52.77661 10.23596 18214 ft 408 kts 30°
2026-05-05 09:23 52.80242 10.25505 18653 ft 407 kts 16°
2026-05-05 09:23 52.82943 10.26999 19117 ft 410 kts 16°
2026-05-05 09:24 52.85654 10.28490 19574 ft 412 kts 16°
2026-05-05 09:24 52.88388 10.29992 20034 ft 415 kts 16°
2026-05-05 09:24 52.91136 10.31501 20485 ft 418 kts 16°
2026-05-05 09:24 52.93905 10.33021 20933 ft 420 kts 16°
2026-05-05 09:25 52.96689 10.34551 21392 ft 423 kts 16°
2026-05-05 09:25 52.99491 10.36101 21869 ft 426 kts 16°
2026-05-05 09:25 53.02310 10.37666 22305 ft 429 kts 16°
2026-05-05 09:25 53.05147 10.39240 22727 ft 431 kts 16°
2026-05-05 09:26 53.07999 10.40825 23138 ft 434 kts 16°
2026-05-05 09:26 53.10871 10.42424 23539 ft 436 kts 16°
2026-05-05 09:26 53.13758 10.44034 23874 ft 439 kts 16°
2026-05-05 09:26 53.16664 10.45655 24206 ft 441 kts 16°
2026-05-05 09:27 53.19578 10.47281 24528 ft 443 kts 16°
2026-05-05 09:27 53.22513 10.48921 24861 ft 446 kts 16°
2026-05-05 09:27 53.25456 10.50570 25200 ft 448 kts 16°
2026-05-05 09:27 53.28420 10.52230 25554 ft 450 kts 15°
2026-05-05 09:28 53.31439 10.53924 25896 ft 452 kts 16°
2026-05-05 09:28 53.34427 10.55607 26219 ft 455 kts 16°
2026-05-05 09:28 53.37432 10.57302 26531 ft 457 kts 16°
2026-05-05 09:28 53.40444 10.59002 26841 ft 459 kts 15°
2026-05-05 09:29 53.43478 10.60714 27143 ft 461 kts 15°
2026-05-05 09:29 53.46524 10.62435 27436 ft 463 kts 16°
2026-05-05 09:29 53.49575 10.64169 27731 ft 464 kts 16°
2026-05-05 09:29 53.52645 10.65915 28009 ft 466 kts 16°
2026-05-05 09:30 53.55722 10.67667 28294 ft 468 kts 16°
2026-05-05 09:30 53.58814 10.69430 28579 ft 470 kts 16°
2026-05-05 09:30 53.61911 10.71201 28866 ft 472 kts 16°
2026-05-05 09:30 53.65027 10.72986 29164 ft 474 kts 16°
2026-05-05 09:31 53.68160 10.74780 29447 ft 476 kts 16°
2026-05-05 09:31 53.71289 10.76578 29818 ft 475 kts 16°
2026-05-05 09:31 53.74414 10.78375 30201 ft 474 kts 16°
2026-05-05 09:31 53.77531 10.80168 30516 ft 473 kts 15°
2026-05-05 09:32 53.80645 10.81959 30810 ft 473 kts 15°
2026-05-05 09:32 53.83760 10.83746 31100 ft 473 kts 15°
2026-05-05 09:32 53.86877 10.85539 31386 ft 473 kts 15°
2026-05-05 09:32 53.89990 10.87340 31674 ft 473 kts 15°
2026-05-05 09:33 53.93100 10.89145 31959 ft 473 kts 15°
2026-05-05 09:33 53.96213 10.90955 32260 ft 472 kts 15°
2026-05-05 09:33 53.99320 10.92767 32539 ft 472 kts 15°
2026-05-05 09:33 54.02430 10.94577 32818 ft 472 kts 15°
2026-05-05 09:34 54.05535 10.96381 33103 ft 472 kts 15°
2026-05-05 09:34 54.08638 10.98192 33384 ft 472 kts 15°
2026-05-05 09:34 54.11742 11.00012 33664 ft 471 kts 15°
2026-05-05 09:34 54.14838 11.01828 33950 ft 471 kts 15°
2026-05-05 09:35 54.17938 11.03647 34192 ft 471 kts 15°
2026-05-05 09:35 54.24168 11.07308 34664 ft 470 kts 15°
2026-05-05 09:35 54.27262 11.09133 34886 ft 470 kts 15°
2026-05-05 09:36 54.30344 11.10959 35105 ft 470 kts 16°
2026-05-05 09:36 54.33441 11.12797 35322 ft 470 kts 15°
2026-05-05 09:36 54.36527 11.14621 35524 ft 470 kts 15°
2026-05-05 09:36 54.39617 11.16450 35724 ft 470 kts 15°
2026-05-05 09:37 54.42709 11.18286 35904 ft 470 kts 16°
2026-05-05 09:37 54.45796 11.20128 35966 ft 470 kts 16°
2026-05-05 09:37 54.51975 11.23833 35965 ft 470 kts 16°
2026-05-05 09:38 54.58243 11.26814 35967 ft 464 kts
2026-05-05 09:38 54.64645 11.27306 35971 ft 460 kts 357°
2026-05-05 09:39 54.71052 11.27595 35973 ft 460 kts 358°
2026-05-05 09:39 54.77456 11.27890 35978 ft 461 kts 358°
2026-05-05 09:40 54.83867 11.28180 35983 ft 461 kts 358°
2026-05-05 09:40 54.90273 11.28472 35989 ft 461 kts 358°
2026-05-05 09:41 54.96681 11.28759 35989 ft 461 kts 358°
2026-05-05 09:41 55.03091 11.29054 35993 ft 460 kts 358°
2026-05-05 09:42 55.09494 11.29355 35991 ft 460 kts 358°
2026-05-05 09:42 55.15896 11.29649 35996 ft 460 kts 358°
2026-05-05 09:43 55.22332 11.29941 35998 ft 460 kts 358°
2026-05-05 09:43 55.28722 11.30232 36000 ft 459 kts 358°
2026-05-05 09:44 55.35111 11.30530 36001 ft 459 kts 358°
2026-05-05 09:44 55.41487 11.30821 36004 ft 458 kts 358°
2026-05-05 09:45 55.47861 11.31121 36004 ft 458 kts 358°
2026-05-05 09:45 55.54225 11.31419 36005 ft 457 kts 358°
2026-05-05 09:46 55.60580 11.31713 36005 ft 457 kts 357°
2026-05-05 09:46 55.66941 11.32010 36005 ft 457 kts 357°
2026-05-05 09:47 55.73296 11.32312 36002 ft 457 kts 357°
2026-05-05 09:47 55.79651 11.32611 36005 ft 457 kts 357°
2026-05-05 09:48 55.86004 11.32916 36007 ft 457 kts 357°
2026-05-05 09:48 55.92358 11.33218 36004 ft 457 kts 357°
2026-05-05 09:49 55.98714 11.33520 36007 ft 457 kts 357°
2026-05-05 09:49 56.05075 11.33827 36010 ft 457 kts 357°
2026-05-05 09:50 56.11441 11.34145 36004 ft 457 kts 356°
2026-05-05 09:50 56.17810 11.34458 36002 ft 457 kts 356°
2026-05-05 09:51 56.24170 11.34752 36000 ft 457 kts 356°
2026-05-05 09:51 56.30537 11.35054 36000 ft 458 kts 356°
2026-05-05 09:52 56.36945 11.35372 35999 ft 458 kts 356°
2026-05-05 09:52 56.43317 11.35690 36002 ft 458 kts 356°
2026-05-05 09:53 56.49685 11.36001 36003 ft 458 kts 356°
2026-05-05 09:53 56.56058 11.36302 36004 ft 458 kts 356°
2026-05-05 09:54 56.62430 11.36606 36007 ft 458 kts 356°
2026-05-05 09:54 56.67732 11.36879 36001 ft 459 kts 356°
2026-05-05 09:55 56.74112 11.37191 36001 ft 459 kts 356°
2026-05-05 09:55 56.80493 11.37510 36002 ft 459 kts 356°
2026-05-05 09:56 56.86879 11.37832 36000 ft 459 kts 355°
2026-05-05 09:56 56.93268 11.38153 36001 ft 459 kts 355°
2026-05-05 09:57 56.99701 11.38473 35999 ft 459 kts 355°
2026-05-05 09:57 57.06092 11.38788 35998 ft 460 kts 355°
2026-05-05 09:58 57.12488 11.39116 35998 ft 460 kts 355°
2026-05-05 09:58 57.18881 11.39462 35998 ft 460 kts 355°
2026-05-05 09:59 57.25283 11.39800 36000 ft 460 kts 355°
2026-05-05 09:59 57.31680 11.40125 36004 ft 460 kts 355°
2026-05-05 10:00 57.38083 11.40441 35998 ft 460 kts 355°
2026-05-05 10:00 57.44487 11.40772 36001 ft 461 kts 355°
2026-05-05 10:01 57.50891 11.41137 35997 ft 461 kts 355°
2026-05-05 10:01 57.57311 11.41528 35986 ft 461 kts 355°
2026-05-05 10:02 57.63728 11.41910 35993 ft 462 kts 355°
2026-05-05 10:02 57.70152 11.42277 35987 ft 462 kts 355°
2026-05-05 10:03 57.76572 11.42642 35978 ft 462 kts 355°
2026-05-05 10:03 57.82995 11.43024 35990 ft 462 kts 355°
2026-05-05 10:04 57.89418 11.43413 35985 ft 462 kts 355°
2026-05-05 10:04 57.95885 11.43809 35983 ft 462 kts 355°
2026-05-05 10:05 58.02312 11.44196 35996 ft 462 kts 355°
2026-05-05 10:05 58.08739 11.44583 35994 ft 462 kts 354°
2026-05-05 10:06 58.15162 11.44972 35990 ft 462 kts 354°
2026-05-05 10:06 58.21588 11.45349 35993 ft 462 kts 354°
2026-05-05 10:07 58.28016 11.45744 35982 ft 462 kts 354°
2026-05-05 10:07 58.34443 11.46132 35980 ft 462 kts 354°
2026-05-05 10:08 58.40872 11.46521 35981 ft 462 kts 354°
2026-05-05 10:08 58.47301 11.46912 35983 ft 462 kts 354°
2026-05-05 10:09 58.53734 11.47312 35978 ft 462 kts 354°
2026-05-05 10:09 58.60162 11.47723 35973 ft 463 kts 354°
2026-05-05 10:10 58.66597 11.48123 35972 ft 463 kts 354°
2026-05-05 10:10 58.73033 11.48528 35971 ft 463 kts 354°
2026-05-05 10:11 58.79516 11.49022 35969 ft 463 kts 355°
2026-05-05 10:11 58.85958 11.49531 35966 ft 463 kts 355°
2026-05-05 10:12 58.92400 11.50026 35961 ft 463 kts 355°
2026-05-05 10:12 58.98842 11.50510 35957 ft 463 kts 354°
2026-05-05 10:13 59.05288 11.50982 35955 ft 464 kts 354°
2026-05-05 10:13 59.11739 11.51454 35948 ft 464 kts 355°
2026-05-05 10:14 59.18199 11.51947 35941 ft 465 kts 355°
2026-05-05 10:14 59.24663 11.52449 35936 ft 465 kts 354°
2026-05-05 10:15 59.31129 11.52941 35929 ft 465 kts 354°
2026-05-05 10:15 59.37601 11.53442 35926 ft 466 kts 354°
2026-05-05 10:16 59.44081 11.53941 35925 ft 466 kts 354°
2026-05-05 10:16 59.50569 11.54441 35923 ft 467 kts 354°
2026-05-05 10:17 59.57063 11.54940 35920 ft 467 kts 354°
2026-05-05 10:17 59.63564 11.55445 35915 ft 467 kts 354°
2026-05-05 10:18 59.70112 11.55958 35916 ft 468 kts 354°
2026-05-05 10:18 59.76624 11.56476 35910 ft 469 kts 354°
2026-05-05 10:19 59.83145 11.56983 35903 ft 469 kts 354°
2026-05-05 10:19 59.89675 11.57509 35909 ft 469 kts 354°
2026-05-05 10:20 59.95690 11.57983 35917 ft 469 kts 354°
2026-05-05 10:20 60.02216 11.58493 35917 ft 469 kts 354°
2026-05-05 10:21 60.08739 11.59010 35917 ft 469 kts 354°
2026-05-05 10:21 60.15261 11.59538 35918 ft 469 kts 354°
2026-05-05 10:22 60.21773 11.60072 35917 ft 468 kts 354°
2026-05-05 10:22 60.28289 11.60592 35919 ft 468 kts 354°
2026-05-05 10:23 60.34798 11.61108 35917 ft 468 kts 354°
2026-05-05 10:23 60.41297 11.61644 35911 ft 468 kts 354°
2026-05-05 10:24 60.47800 11.62180 35906 ft 467 kts 354°
2026-05-05 10:24 60.54347 11.62699 35909 ft 467 kts 354°
2026-05-05 10:25 60.60843 11.63083 35907 ft 467 kts 354°
2026-05-05 10:25 60.67342 11.63417 35906 ft 467 kts 354°
2026-05-05 10:26 60.73840 11.63771 35910 ft 467 kts 354°
2026-05-05 10:26 60.79243 11.64093 35898 ft 468 kts 354°
2026-05-05 10:27 60.85751 11.64486 35901 ft 468 kts 354°
2026-05-05 10:27 60.92255 11.64879 35902 ft 468 kts 354°
2026-05-05 10:28 60.98761 11.65263 35899 ft 468 kts 354°
2026-05-05 10:28 61.05277 11.65658 35901 ft 469 kts 355°
2026-05-05 10:29 61.11797 11.66055 35906 ft 469 kts 355°
2026-05-05 10:29 61.18323 11.66450 35902 ft 469 kts 355°
2026-05-05 10:30 61.24887 11.66831 35898 ft 469 kts 355°
2026-05-05 10:30 61.31415 11.67224 35896 ft 469 kts 355°
2026-05-05 10:31 61.37938 11.67624 35898 ft 469 kts 355°
2026-05-05 10:31 61.44468 11.68032 35898 ft 469 kts 355°
2026-05-05 10:32 61.51000 11.68439 35898 ft 470 kts 355°
2026-05-05 10:32 61.57531 11.68834 35892 ft 470 kts 355°
2026-05-05 10:33 61.64063 11.69235 35890 ft 470 kts 356°
2026-05-05 10:33 61.70596 11.69652 35892 ft 470 kts 356°
2026-05-05 10:34 61.77133 11.70075 35894 ft 470 kts 356°
2026-05-05 10:34 61.83671 11.70477 35891 ft 470 kts 356°
2026-05-05 10:35 61.90202 11.70874 35891 ft 469 kts 356°
2026-05-05 10:35 61.96732 11.71288 35886 ft 469 kts 356°
2026-05-05 10:36 62.03299 11.71712 35886 ft 469 kts 356°
2026-05-05 10:36 62.09822 11.72140 35887 ft 469 kts 356°
2026-05-05 10:37 62.16348 11.72555 35886 ft 469 kts 356°
2026-05-05 10:37 62.22876 11.72970 35888 ft 469 kts 356°
2026-05-05 10:38 62.29405 11.73388 35877 ft 469 kts 356°
2026-05-05 10:38 62.35930 11.73827 35868 ft 469 kts 356°
2026-05-05 10:39 62.42453 11.74261 35851 ft 469 kts 356°
2026-05-05 10:39 62.48974 11.74682 35842 ft 469 kts 356°
2026-05-05 10:40 62.55496 11.75093 35838 ft 469 kts 356°
2026-05-05 10:40 62.62016 11.75524 35838 ft 469 kts 357°
2026-05-05 10:41 62.68536 11.75965 35845 ft 468 kts 357°
2026-05-05 10:41 62.75048 11.76410 35860 ft 468 kts 357°
2026-05-05 10:42 62.84819 11.77066 35881 ft 468 kts 357°
2026-05-05 10:43 62.91339 11.77501 35893 ft 468 kts 357°
2026-05-05 10:43 62.97896 11.77943 35895 ft 468 kts 357°
2026-05-05 10:44 63.04406 11.78379 35887 ft 468 kts 358°
2026-05-05 10:44 63.10917 11.78823 35894 ft 468 kts 358°
2026-05-05 10:45 63.17424 11.79277 35891 ft 468 kts 358°
2026-05-05 10:45 63.23939 11.79733 35890 ft 468 kts 358°
2026-05-05 10:46 63.30442 11.80176 35885 ft 468 kts 358°
2026-05-05 10:46 63.36940 11.81178 35884 ft 471 kts
2026-05-05 10:47 63.43414 11.83463 35878 ft 471 kts
2026-05-05 10:47 63.49890 11.85726 35871 ft 471 kts
2026-05-05 10:48 63.56363 11.87996 35865 ft 471 kts
2026-05-05 10:48 63.62836 11.90274 35864 ft 471 kts
2026-05-05 10:49 63.69308 11.92572 35860 ft 471 kts
2026-05-05 10:49 63.75780 11.94890 35857 ft 471 kts
2026-05-05 10:50 63.82251 11.97219 35852 ft 471 kts
2026-05-05 10:50 63.88766 11.99566 35859 ft 471 kts
2026-05-05 10:51 63.95236 12.01895 35868 ft 471 kts
2026-05-05 10:51 64.01703 12.04244 35870 ft 470 kts
2026-05-05 10:52 64.08163 12.06601 35870 ft 470 kts
2026-05-05 10:52 64.14627 12.08970 35856 ft 470 kts
2026-05-05 10:53 64.21091 12.11351 35846 ft 470 kts
2026-05-05 10:53 64.27549 12.13749 35824 ft 470 kts
2026-05-05 10:54 64.34009 12.16166 35824 ft 470 kts
2026-05-05 10:54 64.40474 12.17896 35820 ft 466 kts 360°
2026-05-05 10:55 64.46959 12.18683 35816 ft 467 kts
2026-05-05 10:55 64.53444 12.19507 35813 ft 467 kts
2026-05-05 10:56 64.59931 12.20334 35807 ft 467 kts
2026-05-05 10:56 64.66415 12.21159 35800 ft 467 kts
2026-05-05 10:57 64.72898 12.21982 35794 ft 466 kts
2026-05-05 10:57 64.79382 12.22796 35786 ft 466 kts
2026-05-05 10:58 64.85900 12.23623 35784 ft 466 kts
2026-05-05 10:58 64.92377 12.24468 35782 ft 466 kts
2026-05-05 10:59 64.98850 12.25320 35775 ft 466 kts
2026-05-05 10:59 65.04227 12.26022 35769 ft 465 kts
2026-05-05 11:00 65.10694 12.26863 35763 ft 465 kts
2026-05-05 11:00 65.17166 12.27709 35761 ft 465 kts
2026-05-05 11:01 65.23628 12.28554 35758 ft 465 kts
2026-05-05 11:01 65.30092 12.29409 35760 ft 465 kts
2026-05-05 11:02 65.36559 12.30266 35763 ft 466 kts
2026-05-05 11:02 65.43027 12.31127 35767 ft 465 kts
2026-05-05 11:03 65.49497 12.31991 35768 ft 465 kts
2026-05-05 11:03 65.55958 12.32866 35766 ft 465 kts
2026-05-05 11:04 65.62473 12.33763 35759 ft 465 kts
2026-05-05 11:04 65.68935 12.34648 35756 ft 465 kts
2026-05-05 11:05 65.75395 12.35510 35742 ft 465 kts
2026-05-05 11:05 65.81857 12.36272 35742 ft 465 kts
2026-05-05 11:06 65.88322 12.37038 35740 ft 465 kts
2026-05-05 11:06 65.94785 12.37824 35738 ft 465 kts
2026-05-05 11:07 66.01243 12.38611 35735 ft 465 kts
2026-05-05 11:07 66.07700 12.39410 35734 ft 465 kts
2026-05-05 11:08 66.14154 12.40223 35728 ft 464 kts
2026-05-05 11:08 66.20603 12.41053 35720 ft 464 kts
2026-05-05 11:09 66.27054 12.41862 35703 ft 464 kts
2026-05-05 11:09 66.33508 12.42649 35687 ft 464 kts
2026-05-05 11:10 66.39954 12.43457 35676 ft 464 kts
2026-05-05 11:10 66.46401 12.44280 35669 ft 464 kts
2026-05-05 11:11 66.52883 12.45118 35660 ft 463 kts
2026-05-05 11:11 66.59325 12.45944 35646 ft 463 kts
2026-05-05 11:12 66.65767 12.46758 35643 ft 463 kts
2026-05-05 11:12 66.72202 12.47600 35623 ft 463 kts
2026-05-05 11:13 66.78635 12.48460 35619 ft 463 kts
2026-05-05 11:13 66.85066 12.49296 35613 ft 463 kts
2026-05-05 11:14 66.91492 12.50130 35608 ft 462 kts
2026-05-05 11:14 66.97918 12.51006 35598 ft 462 kts
2026-05-05 11:15 67.04345 12.51867 35591 ft 462 kts
2026-05-05 11:15 67.10768 12.52716 35592 ft 462 kts
2026-05-05 11:16 67.17188 12.53587 35588 ft 462 kts
2026-05-05 11:16 67.23606 12.54456 35583 ft 462 kts
2026-05-05 11:17 67.30027 12.55325 35574 ft 462 kts
2026-05-05 11:17 67.36444 12.56214 35573 ft 462 kts
2026-05-05 11:18 67.42857 12.57099 35569 ft 462 kts
2026-05-05 11:18 67.49277 12.58010 35567 ft 462 kts
2026-05-05 11:19 67.55690 12.58903 35569 ft 461 kts
2026-05-05 11:19 67.62144 12.59794 35576 ft 461 kts
2026-05-05 11:20 67.68555 12.60681 35581 ft 461 kts
2026-05-05 11:20 67.74969 12.61582 35590 ft 461 kts
2026-05-05 11:21 67.81380 12.62499 35600 ft 461 kts
2026-05-05 11:21 67.87787 12.63431 35609 ft 461 kts
2026-05-05 11:22 67.94199 12.64351 35613 ft 461 kts
2026-05-05 11:22 68.00605 12.65284 35617 ft 461 kts
2026-05-05 11:23 68.07013 12.66214 35622 ft 461 kts
2026-05-05 11:23 68.13418 12.67138 35622 ft 461 kts
2026-05-05 11:24 68.19826 12.68084 35629 ft 461 kts
2026-05-05 11:24 68.26231 12.69036 35637 ft 461 kts
2026-05-05 11:25 68.32636 12.70000 35639 ft 461 kts
2026-05-05 11:25 68.39040 12.70947 35639 ft 461 kts
2026-05-05 11:26 68.45443 12.71907 35646 ft 461 kts
2026-05-05 11:26 68.51895 12.72881 35647 ft 461 kts
2026-05-05 11:27 68.58297 12.73877 35648 ft 461 kts
2026-05-05 11:27 68.64704 12.74852 35651 ft 461 kts
2026-05-05 11:28 68.71106 12.75825 35654 ft 461 kts
2026-05-05 11:28 68.77508 12.76805 35658 ft 461 kts
2026-05-05 11:29 68.83905 12.77799 35665 ft 461 kts
2026-05-05 11:29 68.90303 12.78829 35665 ft 460 kts
2026-05-05 11:30 68.96699 12.79857 35667 ft 460 kts
2026-05-05 11:30 69.03090 12.80865 35666 ft 460 kts
2026-05-05 11:31 69.09482 12.81814 35666 ft 460 kts
2026-05-05 11:31 69.15872 12.82721 35667 ft 460 kts
2026-05-05 11:32 69.22259 12.83623 35670 ft 460 kts
2026-05-05 11:32 69.28647 12.84554 35673 ft 460 kts
2026-05-05 11:33 69.35035 12.85503 35672 ft 460 kts
2026-05-05 11:33 69.40385 12.86302 35677 ft 460 kts
2026-05-05 11:34 69.46769 12.87256 35681 ft 460 kts
2026-05-05 11:34 69.53158 12.88224 35690 ft 459 kts
2026-05-05 11:35 69.59540 12.89195 35688 ft 459 kts
2026-05-05 11:35 69.65925 12.90173 35693 ft 459 kts
2026-05-05 11:36 69.72311 12.91149 35695 ft 459 kts
2026-05-05 11:36 69.78696 12.92140 35697 ft 459 kts
2026-05-05 11:37 69.85075 12.93142 35702 ft 459 kts
2026-05-05 11:37 69.91453 12.94146 35704 ft 459 kts
2026-05-05 11:38 69.97824 12.95152 35708 ft 458 kts
2026-05-05 11:38 70.04191 12.96173 35710 ft 458 kts
2026-05-05 11:39 70.10553 12.97213 35708 ft 458 kts
2026-05-05 11:39 70.16951 12.98249 35712 ft 457 kts
2026-05-05 11:40 70.23303 12.99254 35712 ft 457 kts
2026-05-05 11:40 70.29651 13.00272 35716 ft 457 kts
2026-05-05 11:41 70.35995 13.01316 35718 ft 456 kts
2026-05-05 11:41 70.42332 13.02362 35718 ft 456 kts
2026-05-05 11:42 70.48665 13.03408 35722 ft 455 kts
2026-05-05 11:42 70.54985 13.04454 35720 ft 455 kts
2026-05-05 11:43 70.61303 13.05523 35720 ft 454 kts
2026-05-05 11:43 70.67613 13.06583 35723 ft 454 kts
2026-05-05 11:44 70.73923 13.07650 35728 ft 454 kts
2026-05-05 11:44 70.80232 13.08741 35734 ft 454 kts
2026-05-05 11:45 70.86539 13.09814 35737 ft 454 kts
2026-05-05 11:45 70.92847 13.10919 35742 ft 454 kts
2026-05-05 11:46 70.99147 13.12015 35750 ft 453 kts
2026-05-05 11:46 71.05487 13.13117 35751 ft 453 kts
2026-05-05 11:47 71.11781 13.14226 35765 ft 453 kts
2026-05-05 11:47 71.18067 13.15344 35770 ft 452 kts
2026-05-05 11:48 71.27482 13.17015 35775 ft 451 kts
2026-05-05 11:48 71.33749 13.18157 35780 ft 451 kts
2026-05-05 11:49 71.40012 13.19328 35782 ft 451 kts
2026-05-05 11:49 71.46270 13.20444 35785 ft 450 kts
2026-05-05 11:50 71.52522 13.21567 35791 ft 450 kts
2026-05-05 11:50 71.58767 13.22719 35796 ft 450 kts
2026-05-05 11:51 71.65010 13.23895 35798 ft 449 kts
2026-05-05 11:51 71.71248 13.25070 35800 ft 449 kts
2026-05-05 11:52 71.77488 13.26240 35805 ft 449 kts
2026-05-05 11:52 71.83722 13.27424 35808 ft 449 kts
2026-05-05 11:53 71.89950 13.28631 35815 ft 448 kts
2026-05-05 11:53 71.96215 13.29829 35817 ft 448 kts
2026-05-05 11:54 72.02439 13.31026 35818 ft 448 kts
2026-05-05 11:54 72.08659 13.32248 35823 ft 448 kts
2026-05-05 11:55 72.14876 13.33480 35824 ft 448 kts
2026-05-05 11:55 72.21092 13.34716 35826 ft 447 kts
2026-05-05 11:56 72.27303 13.35948 35836 ft 447 kts
2026-05-05 11:56 72.33511 13.37192 35836 ft 447 kts
2026-05-05 11:57 72.39714 13.38436 35840 ft 447 kts
2026-05-05 11:57 72.45921 13.39691 35847 ft 447 kts
2026-05-05 11:58 72.52129 13.40944 35847 ft 447 kts
2026-05-05 11:58 72.58337 13.42231 35852 ft 447 kts
2026-05-05 11:59 72.64541 13.43533 35858 ft 447 kts
2026-05-05 11:59 72.70747 13.44847 35861 ft 447 kts
2026-05-05 12:00 72.76955 13.46153 35868 ft 447 kts
2026-05-05 12:00 72.83164 13.47436 35870 ft 447 kts
2026-05-05 12:01 72.89413 13.48777 35874 ft 447 kts
2026-05-05 12:01 72.95622 13.50133 35878 ft 447 kts
2026-05-05 12:02 73.01828 13.51476 35881 ft 447 kts
2026-05-05 12:02 73.08035 13.52816 35879 ft 447 kts
2026-05-05 12:03 73.14242 13.54156 35888 ft 447 kts
2026-05-05 12:03 73.20454 13.55536 35888 ft 447 kts
2026-05-05 12:04 73.26659 13.56929 35888 ft 447 kts
2026-05-05 12:04 73.32860 13.58304 35893 ft 447 kts
2026-05-05 12:05 73.39063 13.59709 35898 ft 447 kts
2026-05-05 12:05 73.45266 13.61146 35903 ft 447 kts
2026-05-05 12:06 73.50464 13.62327 35907 ft 447 kts
2026-05-05 12:06 73.56664 13.63762 35908 ft 447 kts
2026-05-05 12:07 73.62873 13.65205 35912 ft 447 kts
2026-05-05 12:07 73.69077 13.66664 35914 ft 447 kts
2026-05-05 12:08 73.75282 13.68147 35916 ft 447 kts
2026-05-05 12:08 73.81487 13.69595 35920 ft 447 kts
2026-05-05 12:09 73.87693 13.71060 35922 ft 447 kts
2026-05-05 12:09 73.93898 13.72560 35929 ft 447 kts
2026-05-05 12:10 74.00105 13.74061 35930 ft 447 kts
2026-05-05 12:10 74.06313 13.75578 35936 ft 447 kts
2026-05-05 12:11 74.12520 13.77115 35939 ft 447 kts
2026-05-05 12:11 74.18722 13.78683 35941 ft 447 kts
2026-05-05 12:12 74.24927 13.80234 35948 ft 447 kts
2026-05-05 12:12 74.31172 13.81810 35949 ft 447 kts
2026-05-05 12:13 74.37375 13.83388 35959 ft 447 kts
2026-05-05 12:13 74.43574 13.84968 35963 ft 447 kts
2026-05-05 12:14 74.49777 13.86572 35960 ft 447 kts
2026-05-05 12:14 74.55978 13.88190 35967 ft 447 kts
2026-05-05 12:15 74.62181 13.89830 35961 ft 447 kts
2026-05-05 12:15 74.68387 13.91480 35963 ft 447 kts
2026-05-05 12:16 74.74592 13.93125 35966 ft 447 kts
2026-05-05 12:16 74.80798 13.94800 35967 ft 447 kts
2026-05-05 12:17 74.87006 13.96490 35983 ft 447 kts
2026-05-05 12:17 74.93214 13.98192 35981 ft 447 kts
2026-05-05 12:18 74.99425 13.99888 35988 ft 447 kts
2026-05-05 12:18 75.05673 14.01740 35987 ft 447 kts
2026-05-05 12:19 75.11876 14.03823 35979 ft 447 kts
2026-05-05 12:19 75.18075 14.05919 35995 ft 447 kts
2026-05-05 12:20 75.24280 14.07996 35988 ft 447 kts
2026-05-05 12:20 75.30485 14.10081 36002 ft 448 kts
2026-05-05 12:21 75.36690 14.12190 35997 ft 448 kts
2026-05-05 12:21 75.42900 14.14280 36009 ft 448 kts
2026-05-05 12:22 75.49105 14.16405 36012 ft 448 kts
2026-05-05 12:22 75.55314 14.18536 36007 ft 448 kts
2026-05-05 12:23 75.61526 14.20695 36019 ft 448 kts
2026-05-05 12:23 75.67736 14.22865 36026 ft 448 kts
2026-05-05 12:24 75.73949 14.25091 36029 ft 448 kts
2026-05-05 12:24 75.80165 14.27335 36034 ft 448 kts
2026-05-05 12:25 75.86382 14.29566 36038 ft 449 kts
2026-05-05 12:25 75.92602 14.31849 36041 ft 449 kts
2026-05-05 12:26 75.98821 14.34124 36049 ft 449 kts
2026-05-05 12:26 76.05042 14.36434 36056 ft 449 kts
2026-05-05 12:27 76.11307 14.38776 36061 ft 449 kts
2026-05-05 12:27 76.17526 14.41108 36066 ft 449 kts
2026-05-05 12:28 76.23741 14.43462 36072 ft 449 kts
2026-05-05 12:28 76.29959 14.45833 36073 ft 449 kts
2026-05-05 12:29 76.36177 14.48247 36076 ft 449 kts
2026-05-05 12:29 76.42395 14.50699 36078 ft 449 kts
2026-05-05 12:30 76.48612 14.53139 36082 ft 449 kts
2026-05-05 12:30 76.54833 14.55622 36085 ft 449 kts
2026-05-05 12:31 76.61052 14.58132 36093 ft 449 kts
2026-05-05 12:31 76.67273 14.60672 36097 ft 449 kts
2026-05-05 12:32 76.73493 14.63197 36102 ft 449 kts
2026-05-05 12:32 76.79717 14.65735 36101 ft 449 kts
2026-05-05 12:33 76.85946 14.68310 36103 ft 449 kts
2026-05-05 12:33 76.92173 14.70931 36008 ft 449 kts
2026-05-05 12:34 76.95275 14.72252 35363 ft 449 kts
2026-05-05 12:34 76.98431 14.73605 34677 ft 449 kts
2026-05-05 12:34 77.01544 14.74949 34008 ft 449 kts
2026-05-05 12:34 77.04650 14.76299 33246 ft 448 kts
2026-05-05 12:35 77.07748 14.77645 32522 ft 447 kts
2026-05-05 12:35 77.10834 14.78975 31811 ft 444 kts
2026-05-05 12:35 77.13904 14.80297 31090 ft 443 kts
2026-05-05 12:35 77.16962 14.81619 30433 ft 439 kts
2026-05-05 12:36 77.19983 14.82930 29849 ft 433 kts
2026-05-05 12:36 77.22964 14.84238 29164 ft 427 kts
2026-05-05 12:36 77.25898 14.85534 28498 ft 422 kts
2026-05-05 12:36 77.28801 14.86833 27850 ft 417 kts
2026-05-05 12:37 77.31667 14.88133 27234 ft 412 kts
2026-05-05 12:37 77.34502 14.89420 26613 ft 407 kts
2026-05-05 12:37 77.37305 14.90688 26022 ft 402 kts
2026-05-05 12:37 77.40076 14.91950 25303 ft 400 kts
2026-05-05 12:38 77.42876 14.93246 24279 ft 407 kts
2026-05-05 12:38 77.44742 14.94116 23787 ft 406 kts
2026-05-05 12:38 77.47546 14.95410 23057 ft 403 kts
2026-05-05 12:38 77.50317 14.96672 22376 ft 398 kts
2026-05-05 12:39 77.53095 14.97934 21717 ft 393 kts
2026-05-05 12:39 77.55806 14.99169 21082 ft 389 kts
2026-05-05 12:39 77.58481 15.00407 20471 ft 384 kts
2026-05-05 12:39 77.61128 15.01656 19875 ft 380 kts
2026-05-05 12:40 77.63742 15.02913 19301 ft 376 kts
2026-05-05 12:40 77.66329 15.04152 18725 ft 372 kts
2026-05-05 12:40 77.68885 15.05374 18147 ft 368 kts
2026-05-05 12:40 77.71413 15.06581 17466 ft 362 kts
2026-05-05 12:41 77.73906 15.07767 16686 ft 358 kts
2026-05-05 12:41 77.76387 15.08964 15796 ft 361 kts
2026-05-05 12:41 77.78892 15.10178 15079 ft 361 kts
2026-05-05 12:41 77.81401 15.10060 14464 ft 362 kts 355°
2026-05-05 12:42 77.83850 15.07265 13882 ft 363 kts 342°
2026-05-05 12:42 77.86139 15.02228 13238 ft 362 kts 336°
2026-05-05 12:42 77.88382 14.96839 12592 ft 360 kts 336°
2026-05-05 12:42 77.90605 14.91466 11927 ft 357 kts 336°
2026-05-05 12:43 77.92810 14.86118 11284 ft 354 kts 336°
2026-05-05 12:43 77.94996 14.80805 10628 ft 351 kts 336°
2026-05-05 12:43 77.97170 14.75508 10236 ft 351 kts 336°
2026-05-05 12:43 77.99317 14.70258 10008 ft 339 kts 336°
2026-05-05 12:44 78.01389 14.65142 9854 ft 321 kts 336°
2026-05-05 12:44 78.03330 14.60314 9702 ft 306 kts 336°
2026-05-05 12:44 78.05177 14.55717 9572 ft 292 kts 337°
2026-05-05 12:44 78.06947 14.51319 9423 ft 281 kts 337°
2026-05-05 12:45 78.08652 14.47072 9210 ft 272 kts 337°
2026-05-05 12:45 78.10326 14.42905 8863 ft 269 kts 338°
2026-05-05 12:45 78.11988 14.38766 8462 ft 268 kts 338°
2026-05-05 12:45 78.13642 14.34626 8065 ft 267 kts 338°
2026-05-05 12:46 78.15284 14.30480 7676 ft 265 kts 338°
2026-05-05 12:46 78.16915 14.26326 7288 ft 264 kts 337°
2026-05-05 12:46 78.18537 14.22186 6904 ft 263 kts 338°
2026-05-05 12:46 78.20143 14.18078 6664 ft 256 kts 338°
2026-05-05 12:47 78.21685 14.14144 6515 ft 244 kts 340°
2026-05-05 12:47 78.23261 14.11959 6229 ft 231 kts
2026-05-05 12:47 78.24822 14.12690 5882 ft 222 kts 20°
2026-05-05 12:47 78.26171 14.15803 5696 ft 209 kts 36°
2026-05-05 12:48 78.27369 14.19782 5390 ft 207 kts 37°
2026-05-05 12:48 78.28556 14.23738 5070 ft 205 kts 37°
2026-05-05 12:48 78.29630 14.28234 4730 ft 202 kts 53°
2026-05-05 12:48 78.30245 14.34417 4366 ft 203 kts 75°
2026-05-05 12:49 78.30242 14.41309 4168 ft 201 kts 99°
2026-05-05 12:49 78.29895 14.47848 4075 ft 193 kts 99°
2026-05-05 12:49 78.29568 14.54254 3944 ft 193 kts 100°
2026-05-05 12:49 78.29237 14.60656 3713 ft 192 kts 100°
2026-05-05 12:50 78.28904 14.67039 3445 ft 193 kts 100°
2026-05-05 12:50 78.28570 14.73401 3187 ft 190 kts 100°
2026-05-05 12:50 78.28244 14.79569 2899 ft 183 kts 100°
2026-05-05 12:50 78.27927 14.85540 2631 ft 178 kts 100°
2026-05-05 12:51 78.27617 14.91368 2369 ft 174 kts 100°
2026-05-05 12:51 78.27314 14.97021 2123 ft 169 kts 100°
2026-05-05 12:51 78.27023 15.02424 1874 ft 158 kts 99°
2026-05-05 12:51 78.26753 15.07425 1669 ft 144 kts 98°
2026-05-05 12:52 78.26506 15.12020 1433 ft 133 kts 98°
2026-05-05 12:52 78.26252 15.16331 1193 ft 130 kts 101°
2026-05-05 12:52 78.25981 15.20537 1028 ft 129 kts 102°
2026-05-05 12:52 78.25728 15.24555 884 ft 128 kts 101°
2026-05-05 12:53 78.25498 15.28766 693 ft 126 kts 100°
2026-05-05 12:53 78.25279 15.32920 524 ft 126 kts 99°
2026-05-05 12:53 78.25065 15.37074 325 ft 125 kts 98°
2026-05-05 12:53 78.24836 15.41188 163 ft 125 kts 101°
2026-05-05 12:54 78.24512 15.47144 101 ft 45 kts 103°
2026-05-05 12:54 78.24440 15.48492 101 ft 38 kts 105°
2026-05-05 12:54 78.24430 15.49132 100 ft 11 kts 30°
2026-05-05 12:55 78.24474 15.49217 101 ft 1 kts 13°
2026-05-05 12:55 78.24491 15.49229 101 ft 4 kts
2026-05-05 12:55 78.24499 15.49230 101 ft 0 kts
2026-05-05 12:56 78.24499 15.49229 101 ft 1 kts 358°
2026-05-05 12:56 78.24548 15.48991 100 ft 16 kts 312°
2026-05-05 12:57 78.24590 15.48657 101 ft 0 kts 285°
2026-05-05 12:57 78.24591 15.48644 101 ft 1 kts 297°
2026-05-05 12:57 78.24611 15.48620 101 ft 4 kts 360°
2026-05-05 12:57 78.24633 15.48643 101 ft 0 kts 13°